Flag Weather past 2 weeks in Santarém, Para, Brazil

Now
90 °F

Passing clouds.


Feels Like: 103 °F
Forecast: 73 / 93 °F
Wind: 12 mph from East

Location: Santarem-Aeroporto

Current Time: Nov 21, 2014 at 3:19:20 PM

Latest Report: Nov 21, 2014 at 3:00 PM


Visibility: N/A

Pressure: 29.77 "Hg

Humidity: 67%

Dew point: 77 °F

Location of SantarémLocation

Historic Weather in Santarém — Graph

°F

Santarém temperature yesterday

Maximum temperature yesterday: 91 °F (at 3:00 PM)
Minimum temperature yesterday: 75 °F (at 4:00 AM)
Average temperature yesterday: 81 °F

Past Weeks' High & Low Weather Summary

 TemperatureHumidityPressure
High95 °F (Nov 8, 3:00 PM)100% (Nov 7, 6:00 AM)29.95 "Hg (Nov 7, 6:00 AM)
Low72 °F (Nov 7, 6:00 AM)36% (Nov 10, 5:00 PM)29.68 "Hg (Nov 8, 4:00 PM)
Average82 °F78%29.80 "Hg
* Reported Nov 6 2:00 PM — Nov 21 2:00 PM, Santarém, Weather by CustomWeather, © 2014

Note: Actual official high and low records may vary slightly from our data, if they occured in-between our weather recording intervals... More about our weather records

Advertising

Santarém weather history for previous 24 hours

 ConditionsComfort  
Time TempWeatherWind HumidityBarometerVisibility
2:00 PM
Nov 21
90 °FPassing clouds.12 mph63%29.80 "HgN/A
1:00 PM88 °FScattered clouds.14 mph66%29.83 "HgN/A
12:00 PM88 °FScattered clouds.17 mph62%29.83 "HgN/A
11:00 AM88 °FScattered clouds.15 mph66%29.86 "HgN/A
10:00 AM84 °FPartly sunny.14 mph74%29.86 "HgN/A
9:00 AM82 °FPartly sunny.9 mph79%29.83 "HgN/A
8:00 AM81 °FScattered clouds.5 mph84%29.80 "HgN/A
7:00 AM75 °FPassing clouds.3 mph94%29.80 "HgN/A
6:00 AM73 °FClear.3 mph94%29.77 "Hg10 mi
5:00 AM73 °FPassing clouds.No wind100%29.77 "HgN/A
4:00 AM73 °FPassing clouds.2 mph100%29.77 "HgN/A
3:00 AM73 °FPassing clouds.No wind100%29.80 "HgN/A
2:00 AM75 °FPassing clouds.No wind94%29.80 "HgN/A
1:00 AM75 °FThundershowers. Passing clouds.3 mph94%29.83 "HgN/A
12:00 AM77 °FThunderstorms. Passing clouds.5 mph89%29.83 "HgN/A
11:00 PM
Nov 20
77 °FPassing clouds.5 mph94%29.83 "HgN/A
10:00 PM79 °FClear.5 mph89%29.80 "Hg10 mi
9:00 PM77 °FPassing clouds.5 mph94%29.80 "HgN/A
8:00 PM79 °FPassing clouds.5 mph89%29.77 "HgN/A
7:00 PM81 °FPassing clouds.5 mph84%29.74 "HgN/A
6:00 PM84 °FPassing clouds.2 mph79%29.71 "HgN/A
5:00 PM86 °FPassing clouds.2 mph75%29.71 "HgN/A
4:00 PM88 °FPassing clouds.7 mph66%29.71 "HgN/A
3:00 PM91 °FPassing clouds.6 mph59%29.74 "HgN/A
Weather by CustomWeather, © 2014

See weather overviewHow to use our weather pages